QPF
0.00 0.00 0.00 0.00 0.00 0.00 0.00 0.00 0.00 0.00 0.00 0.01 0.01 0.01 0.01 0.02 0.04 0.04 0.03 0.05 0.06 0.06 0.07 0.08 0.09 0.10 0.11 0.11 0.11 0.09 0.07 0.07 0.07 0.05 0.04 0.03 0.03 0.02
0.00 0.00 0.00 0.00 0.00 0.00 0.00 0.00 0.00 0.00 0.00 0.00 0.00 0.01 0.01 0.01 0.02 0.02 0.02 0.04 0.05 0.05 0.05 0.07 0.08 0.08 0.08 0.09 0.09 0.09 0.07 0.05 0.04 0.04 0.04 0.03 0.03 0.02
0.00 0.00 0.00 0.00 0.00 0.00 0.00 0.00 0.00 0.00 0.00 0.00 0.00 0.00 0.00 0.00 0.01 0.01 0.02 0.02 0.03 0.04 0.05 0.05 0.07 0.08 0.08 0.07 0.07 0.07 0.07 0.05 0.04 0.03 0.03 0.03 0.02 0.02
0.00 0.00 0.00 0.00 0.00 0.00 0.00 0.00 0.00 0.00 0.00 0.00 0.00 0.00 0.00 0.00 0.01 0.01 0.02 0.02 0.02 0.03 0.04 0.04 0.05 0.06 0.08 0.07 0.06 0.07 0.08 0.07 0.06 0.04 0.03 0.02 0.02 0.02
0.00 0.00 0.00 0.00 0.00 0.00 0.00 0.00 0.00 0.00 0.00 0.00 0.00 0.00 0.00 0.00 0.01 0.01 0.01 0.02 0.02 0.03 0.03 0.04 0.04 0.04 0.05 0.06 0.06 0.05 0.06 0.07 0.07 0.06 0.05 0.04 0.03 0.02
0.00 0.00 0.00 0.00 0.00 0.00 0.00 0.00 0.00 0.00 0.00 0.01 0.00 0.00 0.00 0.00 0.01 0.01 0.01 0.01 0.02 0.02 0.03 0.04 0.04 0.05 0.05 0.04 0.04 0.04 0.05 0.05 0.06 0.06 0.06 0.05 0.05 0.04
0.00 0.00 0.00 0.00 0.00 0.00 0.00 0.00 0.00 0.01 0.00 0.00 0.00 0.00 0.00 0.00 0.01 0.01 0.01 0.01 0.02 0.02 0.02 0.02 0.03 0.04 0.04 0.04 0.04 0.04 0.03 0.04 0.04 0.05 0.05 0.05 0.05 0.04
0.00 0.00 0.00 0.00 0.00 0.00 0.00 0.00 0.01 0.01 0.01 0.01 0.01 0.01 0.01 0.01 0.01 0.01 0.01 0.01 0.02 0.02 0.03 0.03 0.03 0.03 0.03 0.03 0.03 0.04 0.03 0.03 0.03 0.04 0.04 0.05 0.05 0.04
0.00 0.00 0.00 0.00 0.00 0.00 0.00 0.00 0.00 0.01 0.02 0.02 0.01 0.01 0.01 0.01 0.01 0.01 0.01 0.01 0.01 0.02 0.04 0.04 0.04 0.03 0.02 0.03 0.04 0.04 0.04 0.04 0.04 0.03 0.04 0.04 0.04 0.04
0.00 0.00 0.00 0.00 0.00 0.00 0.00 0.00 0.00 0.00 0.01 0.01 0.01 0.01 0.02 0.01 0.01 0.01 0.01 0.02 0.02 0.02 0.04 0.04 0.04 0.04 0.03 0.03 0.03 0.03 0.04 0.04 0.04 0.05 0.05 0.04 0.04 0.05
0.00 0.00 0.00 0.00 0.00 0.00 0.00 0.00 0.00 0.00 0.01 0.01 0.01 0.02 0.02 0.01 0.01 0.01 0.02 0.02 0.02 0.02 0.03 0.04 0.05 0.05 0.05 0.04 0.04 0.04 0.03 0.04 0.05 0.05 0.06 0.06 0.06 0.07
0.00 0.00 0.00 0.00 0.00 0.00 0.00 0.00 0.00 0.00 0.01 0.01 0.01 0.02 0.02 0.02 0.01 0.01 0.02 0.02 0.03 0.03 0.03 0.04 0.06 0.07 0.07 0.07 0.06 0.05 0.04 0.04 0.05 0.07 0.08 0.07 0.08 0.07
0.00 0.00 0.00 0.00 0.00 0.00 0.00 0.00 0.00 0.00 0.01 0.02 0.02 0.02 0.02 0.02 0.02 0.02 0.02 0.03 0.04 0.04 0.04 0.04 0.05 0.08 0.09 0.08 0.08 0.07 0.05 0.05 0.04 0.04 0.08 0.11 0.11 0.08
0.00 0.00 0.00 0.00 0.00 0.00 0.00 0.00 0.00 0.00 0.01 0.01 0.02 0.02 0.02 0.03 0.04 0.05 0.05 0.04 0.05 0.06 0.06 0.05 0.05 0.06 0.07 0.08 0.08 0.08 0.08 0.07 0.06 0.06 0.05 0.08 0.11 0.12
0.00 0.00 0.00 0.00 0.00 0.00 0.00 0.00 0.00 0.00 0.00 0.01 0.01 0.02 0.02 0.04 0.06 0.07 0.08 0.07 0.06 0.07 0.10 0.10 0.08 0.08 0.08 0.08 0.08 0.10 0.11 0.11 0.10 0.09 0.09 0.08 0.07 0.08
0.00 0.00 0.00 0.00 0.00 0.00 0.00 0.00 0.00 0.00 0.01 0.01 0.01 0.01 0.03 0.05 0.07 0.07 0.07 0.07 0.06 0.07 0.10 0.13 0.11 0.09 0.09 0.09 0.09 0.09 0.10 0.12 0.13 0.12 0.12 0.11 0.09 0.07
0.00 0.00 0.00 0.00 0.00 0.00 0.00 0.01 0.00 0.00 0.01 0.01 0.01 0.01 0.02 0.04 0.04 0.05 0.05 0.06 0.06 0.06 0.09 0.12 0.13 0.11 0.10 0.10 0.09 0.09 0.09 0.10 0.11 0.12 0.12 0.13 0.13 0.11
0.00 0.00 0.00 0.00 0.00 0.00 0.00 0.01 0.01 0.01 0.01 0.02 0.01 0.01 0.02 0.03 0.03 0.03 0.04 0.06 0.07 0.06 0.08 0.10 0.12 0.13 0.11 0.11 0.11 0.09 0.10 0.09 0.09 0.10 0.11 0.11 0.13 0.13
0.00 0.00 0.00 0.00 0.00 0.00 0.00 0.01 0.01 0.01 0.01 0.02 0.03 0.02 0.02 0.03 0.03 0.04 0.04 0.06 0.07 0.06 0.07 0.09 0.10 0.12 0.11 0.10 0.09 0.08 0.08 0.11 0.11 0.11 0.10 0.09 0.09 0.11
0.01 0.01 0.01 0.00 0.00 0.00 0.00 0.01 0.01 0.02 0.02 0.02 0.04 0.03 0.02 0.03 0.03 0.04 0.05 0.05 0.06 0.06 0.05 0.05 0.07 0.09 0.10 0.10 0.09 0.08 0.08 0.10 0.12 0.13 0.13 0.11 0.11 0.13
0.02 0.04 0.01 0.01 0.01 0.01 0.01 0.01 0.01 0.02 0.02 0.03 0.04 0.03 0.02 0.03 0.03 0.04 0.04 0.04 0.06 0.05 0.05 0.05 0.05 0.06 0.08 0.09 0.10 0.09 0.07 0.09 0.12 0.13 0.15 0.15 0.14 0.14
0.02 0.04 0.04 0.01 0.01 0.01 0.01 0.01 0.01 0.01 0.03 0.05 0.05 0.04 0.02 0.03 0.03 0.03 0.05 0.05 0.05 0.06 0.05 0.05 0.04 0.05 0.07 0.10 0.12 0.12 0.10 0.09 0.11 0.16 0.19 0.20 0.18 0.14
0.01 0.02 0.05 0.04 0.01 0.01 0.01 0.01 0.01 0.01 0.03 0.06 0.05 0.04 0.03 0.03 0.03 0.04 0.07 0.06 0.05 0.07 0.08 0.05 0.06 0.07 0.08 0.10 0.13 0.14 0.14 0.13 0.12 0.13 0.13 0.16 0.17 0.17
MSLP
1019.81 1019.84 1019.89 1019.94 1019.96 1019.94 1019.87 1019.74 1019.56 1019.32 1019.06 1018.77 1018.46 1018.14 1017.81 1017.49 1017.16 1016.85 1016.56 1016.31 1016.12 1015.99 1015.93 1015.95 1016.05 1016.23 1016.46 1016.76 1017.10 1017.48 1017.90 1018.36 1018.86 1019.39 1019.94 1020.50 1021.06 1021.60
1019.57 1019.58 1019.61 1019.64 1019.64 1019.60 1019.53 1019.41 1019.25 1019.06 1018.84 1018.60 1018.34 1018.06 1017.76 1017.44 1017.10 1016.77 1016.44 1016.14 1015.90 1015.71 1015.60 1015.58 1015.62 1015.74 1015.93 1016.16 1016.45 1016.78 1017.15 1017.56 1018.01 1018.50 1019.02 1019.56 1020.12 1020.66
1019.28 1019.28 1019.28 1019.28 1019.26 1019.21 1019.12 1019.01 1018.88 1018.72 1018.55 1018.36 1018.14 1017.90 1017.63 1017.33 1017.00 1016.66 1016.31 1015.99 1015.70 1015.48 1015.34 1015.27 1015.27 1015.35 1015.48 1015.67 1015.90 1016.17 1016.48 1016.83 1017.23 1017.67 1018.16 1018.68 1019.20 1019.73
1018.95 1018.94 1018.92 1018.90 1018.86 1018.79 1018.70 1018.59 1018.47 1018.34 1018.20 1018.04 1017.87 1017.66 1017.42 1017.14 1016.82 1016.48 1016.13 1015.80 1015.50 1015.26 1015.09 1014.99 1014.96 1015.00 1015.09 1015.23 1015.40 1015.61 1015.86 1016.16 1016.51 1016.90 1017.35 1017.83 1018.33 1018.83
1018.59 1018.57 1018.56 1018.52 1018.47 1018.38 1018.28 1018.17 1018.04 1017.92 1017.79 1017.66 1017.50 1017.32 1017.10 1016.83 1016.53 1016.20 1015.86 1015.53 1015.23 1014.99 1014.80 1014.69 1014.64 1014.64 1014.69 1014.78 1014.90 1015.05 1015.25 1015.49 1015.78 1016.14 1016.54 1016.99 1017.47 1017.95
1018.21 1018.20 1018.19 1018.15 1018.09 1017.99 1017.88 1017.75 1017.61 1017.47 1017.33 1017.19 1017.04 1016.86 1016.64 1016.39 1016.10 1015.79 1015.47 1015.15 1014.87 1014.63 1014.45 1014.33 1014.25 1014.23 1014.24 1014.28 1014.34 1014.44 1014.58 1014.77 1015.01 1015.33 1015.70 1016.13 1016.59 1017.06
1017.82 1017.83 1017.82 1017.79 1017.72 1017.61 1017.48 1017.32 1017.16 1016.99 1016.82 1016.65 1016.47 1016.27 1016.05 1015.81 1015.53 1015.24 1014.94 1014.66 1014.40 1014.18 1014.01 1013.88 1013.80 1013.74 1013.71 1013.69 1013.70 1013.74 1013.82 1013.95 1014.16 1014.43 1014.78 1015.19 1015.64 1016.12
1017.44 1017.45 1017.45 1017.41 1017.34 1017.22 1017.06 1016.87 1016.67 1016.46 1016.24 1016.03 1015.81 1015.58 1015.35 1015.10 1014.84 1014.57 1014.30 1014.06 1013.84 1013.65 1013.50 1013.37 1013.27 1013.18 1013.10 1013.03 1012.98 1012.95 1012.97 1013.05 1013.20 1013.44 1013.76 1014.16 1014.60 1015.08
1017.05 1017.06 1017.05 1017.02 1016.93 1016.79 1016.61 1016.39 1016.14 1015.88 1015.61 1015.34 1015.08 1014.82 1014.56 1014.30 1014.05 1013.81 1013.59 1013.39 1013.21 1013.06 1012.93 1012.82 1012.70 1012.59 1012.46 1012.33 1012.21 1012.11 1012.06 1012.07 1012.17 1012.36 1012.65 1013.03 1013.47 1013.95
1016.66 1016.66 1016.64 1016.59 1016.49 1016.33 1016.12 1015.86 1015.57 1015.25 1014.93 1014.61 1014.30 1014.01 1013.73 1013.47 1013.24 1013.03 1012.85 1012.69 1012.56 1012.45 1012.36 1012.25 1012.14 1011.99 1011.83 1011.64 1011.45 1011.27 1011.14 1011.08 1011.11 1011.25 1011.50 1011.84 1012.26 1012.74
1016.26 1016.24 1016.20 1016.13 1016.00 1015.82 1015.58 1015.29 1014.96 1014.61 1014.24 1013.88 1013.53 1013.21 1012.92 1012.66 1012.44 1012.26 1012.11 1012.01 1011.93 1011.86 1011.79 1011.71 1011.59 1011.43 1011.23 1010.99 1010.73 1010.48 1010.28 1010.14 1010.10 1010.17 1010.35 1010.65 1011.04 1011.49
1015.86 1015.80 1015.74 1015.64 1015.49 1015.28 1015.02 1014.70 1014.35 1013.96 1013.56 1013.17 1012.80 1012.45 1012.15 1011.89 1011.68 1011.53 1011.42 1011.35 1011.31 1011.29 1011.25 1011.18 1011.07 1010.91 1010.68 1010.40 1010.09 1009.78 1009.50 1009.28 1009.16 1009.16 1009.27 1009.51 1009.84 1010.25
1015.45 1015.36 1015.26 1015.14 1014.96 1014.73 1014.45 1014.11 1013.74 1013.33 1012.92 1012.51 1012.12 1011.76 1011.45 1011.19 1010.99 1010.85 1010.76 1010.72 1010.71 1010.71 1010.70 1010.65 1010.55 1010.39 1010.15 1009.85 1009.51 1009.15 1008.81 1008.53 1008.34 1008.25 1008.29 1008.45 1008.72 1009.07
1015.02 1014.91 1014.79 1014.63 1014.43 1014.18 1013.88 1013.53 1013.15 1012.74 1012.32 1011.91 1011.51 1011.15 1010.83 1010.57 1010.36 1010.22 1010.13 1010.09 1010.09 1010.10 1010.11 1010.08 1009.99 1009.83 1009.60 1009.30 1008.94 1008.56 1008.18 1007.85 1007.60 1007.45 1007.41 1007.49 1007.69 1007.98
1014.58 1014.45 1014.30 1014.12 1013.90 1013.63 1013.32 1012.97 1012.59 1012.18 1011.77 1011.36 1010.96 1010.60 1010.27 1009.99 1009.77 1009.61 1009.50 1009.44 1009.43 1009.43 1009.43 1009.41 1009.33 1009.19 1008.97 1008.68 1008.33 1007.95 1007.56 1007.20 1006.91 1006.70 1006.60 1006.62 1006.75 1006.97
1014.10 1013.96 1013.80 1013.60 1013.36 1013.08 1012.76 1012.40 1012.03 1011.64 1011.24 1010.84 1010.46 1010.09 1009.76 1009.46 1009.21 1009.01 1008.86 1008.76 1008.71 1008.68 1008.66 1008.62 1008.55 1008.42 1008.22 1007.96 1007.64 1007.27 1006.89 1006.53 1006.22 1005.98 1005.84 1005.80 1005.88 1006.05
1013.55 1013.42 1013.24 1013.03 1012.77 1012.48 1012.16 1011.81 1011.45 1011.08 1010.71 1010.34 1009.97 1009.62 1009.28 1008.96 1008.67 1008.42 1008.22 1008.06 1007.94 1007.86 1007.80 1007.74 1007.65 1007.53 1007.35 1007.12 1006.83 1006.50 1006.14 1005.80 1005.49 1005.24 1005.08 1005.01 1005.05 1005.19
1012.91 1012.77 1012.59 1012.36 1012.10 1011.80 1011.48 1011.16 1010.82 1010.49 1010.16 1009.83 1009.49 1009.15 1008.81 1008.48 1008.15 1007.85 1007.58 1007.35 1007.17 1007.02 1006.90 1006.79 1006.69 1006.56 1006.40 1006.19 1005.93 1005.64 1005.33 1005.01 1004.72 1004.48 1004.31 1004.24 1004.26 1004.39
1012.13 1011.99 1011.80 1011.57 1011.30 1011.01 1010.71 1010.41 1010.12 1009.84 1009.56 1009.29 1009.00 1008.69 1008.37 1008.02 1007.67 1007.33 1006.99 1006.69 1006.43 1006.21 1006.02 1005.87 1005.73 1005.59 1005.43 1005.24 1005.02 1004.76 1004.48 1004.20 1003.94 1003.72 1003.56 1003.49 1003.52 1003.64
1011.20 1011.05 1010.86 1010.62 1010.35 1010.08 1009.81 1009.57 1009.34 1009.13 1008.93 1008.72 1008.49 1008.24 1007.94 1007.61 1007.25 1006.86 1006.48 1006.11 1005.78 1005.49 1005.24 1005.03 1004.85 1004.69 1004.53 1004.36 1004.16 1003.93 1003.69 1003.45 1003.22 1003.02 1002.88 1002.82 1002.86 1003.00
1010.10 1009.95 1009.75 1009.52 1009.27 1009.04 1008.83 1008.65 1008.50 1008.37 1008.26 1008.14 1008.00 1007.80 1007.55 1007.24 1006.88 1006.48 1006.06 1005.64 1005.25 1004.90 1004.59 1004.34 1004.13 1003.95 1003.78 1003.62 1003.44 1003.24 1003.03 1002.82 1002.62 1002.45 1002.33 1002.29 1002.34 1002.50
1008.88 1008.71 1008.52 1008.31 1008.11 1007.93 1007.79 1007.69 1007.64 1007.62 1007.61 1007.59 1007.52 1007.40 1007.20 1006.92 1006.58 1006.17 1005.73 1005.28 1004.85 1004.45 1004.11 1003.82 1003.59 1003.39 1003.23 1003.07 1002.91 1002.74 1002.56 1002.38 1002.20 1002.05 1001.96 1001.94 1002.01 1002.18
1007.59 1007.43 1007.25 1007.08 1006.93 1006.83 1006.78 1006.79 1006.84 1006.93 1007.02 1007.09 1007.11 1007.05 1006.90 1006.65 1006.32 1005.92 1005.47 1005.00 1004.54 1004.12 1003.76 1003.45 1003.21 1003.02 1002.86 1002.72 1002.59 1002.45 1002.30 1002.14 1001.99 1001.87 1001.80 1001.79 1001.88 1002.07
Thickness
5637 5637 5636 5637 5637 5637 5637 5637 5637 5638 5642 5647 5652 5657 5660 5663 5667 5670 5674 5678 5682 5685 5689 5692 5695 5698 5701 5702 5703 5704 5705 5705 5706 5706 5707 5707 5707 5707
5631 5630 5630 5630 5630 5630 5629 5630 5630 5631 5633 5638 5641 5645 5649 5653 5657 5661 5665 5670 5674 5678 5681 5686 5689 5693 5696 5698 5700 5701 5702 5703 5704 5705 5706 5706 5707 5707
5626 5625 5624 5623 5623 5623 5622 5622 5622 5623 5625 5630 5632 5635 5639 5643 5648 5652 5657 5661 5666 5670 5674 5678 5683 5686 5690 5693 5695 5697 5699 5701 5702 5704 5704 5705 5706 5706
5620 5619 5618 5617 5616 5615 5615 5614 5614 5615 5616 5620 5623 5625 5629 5633 5638 5642 5647 5652 5657 5662 5667 5671 5675 5679 5683 5687 5690 5692 5695 5697 5699 5701 5703 5704 5705 5705
5615 5613 5612 5610 5609 5608 5607 5607 5607 5608 5607 5609 5613 5615 5619 5622 5626 5631 5636 5641 5647 5652 5658 5663 5668 5672 5676 5680 5684 5687 5690 5693 5696 5698 5700 5701 5703 5704
5610 5608 5606 5604 5603 5602 5601 5600 5599 5599 5599 5600 5603 5605 5608 5611 5614 5619 5625 5630 5636 5642 5648 5653 5658 5663 5668 5673 5678 5682 5685 5688 5691 5694 5696 5698 5700 5701
5606 5603 5601 5600 5598 5596 5595 5594 5592 5592 5591 5592 5594 5595 5598 5600 5603 5608 5612 5618 5625 5631 5637 5643 5649 5655 5659 5665 5670 5675 5679 5683 5687 5689 5692 5694 5697 5699
5601 5599 5596 5595 5594 5592 5590 5589 5587 5585 5585 5585 5586 5587 5590 5591 5593 5596 5600 5605 5613 5620 5624 5632 5638 5645 5651 5657 5663 5669 5673 5677 5682 5685 5688 5691 5693 5696
5597 5594 5592 5591 5588 5586 5584 5583 5582 5581 5580 5579 5580 5581 5582 5584 5585 5588 5590 5595 5602 5609 5612 5622 5628 5635 5643 5650 5656 5662 5667 5672 5676 5680 5683 5687 5689 5692
5594 5591 5587 5585 5583 5580 5578 5577 5576 5575 5574 5574 5574 5575 5575 5575 5576 5579 5582 5586 5593 5598 5602 5610 5619 5626 5634 5642 5649 5654 5660 5665 5670 5674 5678 5682 5685 5688
5592 5588 5584 5581 5579 5575 5572 5571 5570 5570 5569 5569 5569 5568 5568 5568 5569 5570 5573 5577 5585 5591 5595 5601 5610 5616 5625 5633 5641 5647 5653 5658 5663 5668 5672 5676 5680 5681
5590 5586 5582 5578 5575 5571 5567 5566 5565 5566 5564 5563 5562 5562 5562 5562 5563 5564 5567 5570 5576 5583 5589 5593 5601 5606 5615 5625 5631 5637 5644 5650 5655 5661 5666 5670 5673 5674
5587 5584 5580 5576 5571 5568 5564 5562 5561 5559 5557 5556 5556 5556 5556 5557 5558 5560 5562 5565 5570 5577 5582 5585 5592 5597 5604 5613 5621 5628 5635 5642 5648 5653 5658 5663 5666 5669
5584 5581 5578 5573 5569 5565 5562 5560 5557 5554 5552 5551 5551 5551 5551 5553 5555 5556 5558 5561 5565 5571 5575 5578 5584 5590 5595 5603 5611 5619 5626 5633 5639 5645 5651 5655 5658 5662
5582 5578 5574 5570 5566 5564 5561 5558 5554 5552 5549 5548 5548 5548 5548 5549 5550 5552 5554 5556 5560 5564 5569 5573 5578 5584 5589 5596 5604 5611 5616 5624 5631 5637 5643 5648 5652 5655
5579 5575 5571 5567 5564 5561 5559 5556 5553 5550 5547 5546 5546 5545 5544 5545 5546 5548 5550 5553 5556 5561 5565 5569 5573 5578 5584 5591 5597 5604 5609 5616 5623 5629 5634 5639 5644 5648
5575 5571 5568 5565 5563 5560 5557 5554 5551 5548 5545 5544 5542 5542 5542 5542 5544 5545 5546 5549 5552 5557 5562 5566 5569 5574 5579 5585 5592 5599 5604 5609 5615 5620 5625 5631 5636 5641
5569 5568 5566 5563 5560 5558 5555 5553 5550 5548 5545 5543 5542 5540 5540 5541 5542 5543 5544 5546 5549 5553 5556 5561 5564 5569 5574 5581 5587 5593 5598 5604 5608 5612 5617 5623 5628 5633
5567 5567 5565 5562 5559 5556 5553 5550 5548 5547 5544 5542 5541 5540 5539 5539 5540 5541 5543 5544 5547 5549 5553 5556 5560 5564 5570 5578 5585 5588 5593 5598 5601 5605 5610 5616 5622 5626
5567 5566 5564 5561 5558 5554 5552 5549 5547 5545 5543 5541 5540 5539 5539 5538 5539 5540 5541 5543 5545 5547 5550 5553 5557 5561 5567 5573 5579 5584 5587 5591 5596 5600 5604 5608 5612 5616
5568 5565 5562 5559 5557 5554 5551 5548 5545 5544 5542 5540 5539 5538 5537 5537 5538 5539 5540 5540 5542 5545 5549 5553 5556 5557 5562 5566 5572 5579 5582 5585 5590 5594 5598 5601 5604 5609
5568 5565 5562 5559 5556 5553 5550 5547 5545 5543 5541 5540 5538 5537 5536 5535 5536 5538 5538 5539 5542 5544 5547 5550 5552 5554 5557 5562 5569 5573 5576 5579 5582 5586 5590 5595 5601 5606
5566 5563 5560 5557 5554 5552 5549 5547 5545 5543 5541 5539 5537 5536 5535 5535 5535 5536 5537 5538 5540 5542 5544 5547 5549 5551 5554 5558 5563 5567 5570 5573 5577 5580 5583 5587 5592 5598